| time (UTC) | temp F | wind direction | speed knots | gust knots | rain 1hr in | rain 24hr in | rain mn in | humidity % | barometer mb |
| 20260902113028 | 50 | 162 | 0.0 | 0.0 | 0.00 | 0.00 | 0.00 | 74 | 1005.6 |
| 20260902111526 | 49 | 162 | 0.0 | 0.0 | 0.00 | 0.00 | 0.00 | 79 | 1005.4 |
| 20260902110024 | 48 | 162 | 0.0 | 0.0 | 0.00 | 0.00 | 0.00 | 79 | 1005.7 |
| 20260902104521 | 49 | 162 | 0.0 | 0.0 | 0.00 | 0.00 | 0.00 | 76 | 1005.7 |
| 20260902103034 | 49 | 162 | 0.0 | 0.0 | 0.00 | 0.00 | 0.00 | 76 | 1005.7 |
| 20260902101528 | 50 | 162 | 0.0 | 0.0 | 0.00 | 0.00 | 0.00 | 74 | 1005.8 |
| 20260902100016 | 51 | 162 | 0.0 | 1.7 | 0.00 | 0.00 | 0.00 | 72 | 1005.7 |
| 20260902094514 | 51 | 162 | 0.0 | 0.9 | 0.00 | 0.00 | 0.00 | 74 | 1005.7 |
| 20260902093010 | 52 | 162 | 0.0 | 1.7 | 0.00 | 0.00 | 0.00 | 71 | 1005.9 |
| 20260902091507 | 54 | 162 | 0.9 | 1.7 | 0.00 | 0.00 | 0.00 | 68 | 1005.9 |
| 20260902090007 | 54 | 162 | 0.0 | 0.9 | 0.00 | 0.00 | 0.00 | 68 | 1006.1 |
| 20260902084505 | 54 | 162 | 0.0 | 0.9 | 0.00 | 0.00 | 0.00 | 69 | 1006.2 |
| 20260902083003 | 54 | 162 | 0.0 | 0.9 | 0.00 | 0.00 | 0.00 | 68 | 1005.9 |
| 20260902081615 | 54 | 162 | 0.0 | 0.9 | 0.00 | 0.00 | 0.00 | 68 | 1005.8 |
| 20260902080058 | 55 | 162 | 0.9 | 1.7 | 0.00 | 0.00 | 0.00 | 66 | 1006.1 |
| 20260902074557 | 56 | 162 | 0.0 | 1.7 | 0.00 | 0.00 | 0.00 | 63 | 1006.3 |
| 20260902073052 | 57 | 162 | 0.0 | 0.9 | 0.00 | 0.00 | 0.00 | 63 | 1006.4 |
| 20260902071601 | 57 | 162 | 0.0 | 1.7 | 0.00 | 0.00 | 0.00 | 62 | 1006.5 |
| 20260902070050 | 60 | 162 | 1.7 | 4.3 | 0.00 | 0.00 | 0.00 | 57 | 1006.6 |
| 20260902064555 | 60 | 162 | 0.9 | 3.5 | 0.00 | 0.00 | 0.00 | 58 | 1006.5 |
| 20260902063046 | 61 | 162 | 0.0 | 0.9 | 0.00 | 0.00 | 0.00 | 56 | 1006.6 |
| 20260902061548 | 62 | 161 | 0.0 | 1.7 | 0.00 | 0.00 | 0.00 | 53 | 1006.6 |
| 20260902060039 | 62 | 162 | 0.9 | 1.7 | 0.00 | 0.00 | 0.00 | 54 | 1006.6 |
| 20260902054540 | 66 | 162 | 0.0 | 5.2 | 0.00 | 0.00 | 0.00 | 47 | 1006.5 |
| 20260902053038 | 66 | 162 | 0.9 | 3.5 | 0.00 | 0.00 | 0.00 | 47 | 1006.5 |
| 20260902051539 | 65 | 162 | 0.0 | 0.9 | 0.00 | 0.00 | 0.00 | 50 | 1006.6 |
| 20260902050042 | 68 | 162 | 0.0 | 0.0 | 0.00 | 0.00 | 0.00 | 46 | 1006.4 |
| 20260902044546 | 69 | 162 | 0.0 | 0.9 | 0.00 | 0.00 | 0.00 | 45 | 1006.2 |
| 20260902043036 | 70 | 162 | 0.0 | 2.6 | 0.00 | 0.00 | 0.00 | 43 | 1006.2 |
| 20260902041534 | 71 | 162 | 0.9 | 2.6 | 0.00 | 0.00 | 0.00 | 41 | 1006.3 |
| 20260902040034 | 72 | 162 | 0.0 | 2.6 | 0.00 | 0.00 | 0.00 | 40 | 1006.3 |
| 20260902034538 | 72 | 162 | 0.9 | 5.2 | 0.00 | 0.00 | 0.00 | 40 | 1006.4 |
| 20260902033034 | 72 | 162 | 1.7 | 5.2 | 0.00 | 0.00 | 0.00 | 39 | 1006.3 |
| 20260902031533 | 71 | 162 | 0.9 | 3.5 | 0.00 | 0.00 | 0.00 | 42 | 1006.5 |
| 20260902030032 | 69 | 162 | 0.9 | 2.6 | 0.00 | 0.00 | 0.00 | 47 | 1006.3 |
| 20260902024532 | 71 | 162 | 0.0 | 2.6 | 0.00 | 0.00 | 0.00 | 42 | 1006.4 |
| 20260902023032 | 72 | 161 | 0.9 | 2.6 | 0.00 | 0.00 | 0.00 | 41 | 1006.3 |
| 20260902021545 | 73 | 162 | 1.7 | 3.5 | 0.00 | 0.00 | 0.00 | 41 | 1006.4 |
| 20260902020030 | 74 | 162 | 3.5 | 8.7 | 0.00 | 0.00 | 0.00 | 39 | 1006.2 |
| 20260902014538 | 76 | 162 | 2.6 | 6.1 | 0.00 | 0.00 | 0.00 | 33 | 1006.6 |
| 20260902013030 | 77 | 162 | 2.6 | 5.2 | 0.00 | 0.00 | 0.00 | 32 | 1006.3 |
| 20260902011529 | 78 | 162 | 4.3 | 7.8 | 0.00 | 0.00 | 0.00 | 30 | 1006.2 |
| 20260902010026 | 79 | 162 | 4.3 | 8.7 | 0.00 | 0.00 | 0.00 | 29 | 1005.7 |
| 20260902004528 | 80 | 161 | 6.1 | 11.3 | 0.00 | 0.00 | 0.00 | 28 | 1005.5 |
| 20260902003030 | 81 | 162 | 2.6 | 6.1 | 0.00 | 0.00 | 0.00 | 27 | 1005.0 |
| 20260902001525 | 81 | 161 | 3.5 | 9.6 | 0.00 | 0.00 | 0.00 | 26 | 1005.0 |
| 20260902000025 | 82 | 162 | 4.3 | 8.7 | 0.00 | 0.00 | 0.00 | 26 | 1005.0 |
| 20260901234524 | 83 | 162 | 4.3 | 7.8 | 0.00 | 0.00 | 0.00 | 25 | 1004.8 |
| 20260901233024 | 86 | 161 | 0.0 | 5.2 | 0.00 | 0.00 | 0.00 | 24 | 1004.4 |
| 20260901231523 | 86 | 161 | 0.9 | 2.6 | 0.00 | 0.00 | 0.00 | 22 | 1004.2 |
| 20260901230022 | 86 | 161 | 0.0 | 4.3 | 0.00 | 0.00 | 0.00 | 23 | 1004.0 |
| 20260901224523 | 87 | 162 | 0.9 | 2.6 | 0.00 | 0.00 | 0.00 | 22 | 1004.2 |
| 20260901223024 | 86 | 161 | 0.0 | 1.7 | 0.00 | 0.00 | 0.00 | 22 | 1004.7 |
| 20260901221515 | 86 | 161 | 1.7 | 4.3 | 0.00 | 0.00 | 0.00 | 23 | 1004.9 |
| 20260901220022 | 84 | 161 | 0.9 | 3.5 | 0.00 | 0.00 | 0.00 | 25 | 1005.2 |
| 20260901214510 | 84 | 162 | 0.9 | 2.6 | 0.00 | 0.00 | 0.00 | 25 | 1005.5 |
| 20260901213008 | 84 | 161 | 0.0 | 3.5 | 0.00 | 0.00 | 0.00 | 25 | 1005.6 |
| 20260901211506 | 84 | 161 | 0.9 | 4.3 | 0.00 | 0.00 | 0.00 | 25 | 1005.7 |
| 20260901210005 | 84 | 161 | 2.6 | 5.2 | 0.00 | 0.00 | 0.00 | 26 | 1005.8 |
| 20260901204501 | 84 | 162 | 1.7 | 5.2 | 0.00 | 0.00 | 0.00 | 26 | 1006.0 |
| 20260901203118 | 82 | 161 | 0.0 | 3.5 | 0.00 | 0.00 | 0.00 | 27 | 1006.3 |
| 20260901201555 | 81 | 161 | 1.7 | 3.5 | 0.00 | 0.00 | 0.00 | 29 | 1006.5 |
| 20260901200051 | 80 | 162 | 0.9 | 2.6 | 0.00 | 0.00 | 0.00 | 30 | 1006.8 |
| 20260901194547 | 79 | 162 | 0.9 | 3.5 | 0.00 | 0.00 | 0.00 | 31 | 1007.1 |
| 20260901193043 | 77 | 161 | 0.0 | 6.1 | 0.00 | 0.00 | 0.00 | 32 | 1007.6 |
| 20260901191541 | 75 | 161 | 1.7 | 4.3 | 0.00 | 0.00 | 0.00 | 34 | 1007.9 |
| 20260901190037 | 75 | 161 | 1.7 | 4.3 | 0.00 | 0.00 | 0.00 | 35 | 1008.2 |
| 20260901184542 | 73 | 162 | 1.7 | 4.3 | 0.00 | 0.00 | 0.00 | 37 | 1008.5 |
| 20260901183034 | 73 | 161 | 1.7 | 6.1 | 0.00 | 0.00 | 0.00 | 36 | 1008.7 |
| 20260901181532 | 71 | 161 | 0.9 | 3.5 | 0.00 | 0.00 | 0.00 | 38 | 1009.1 |
| 20260901180024 | 70 | 161 | 0.9 | 2.6 | 0.00 | 0.00 | 0.00 | 40 | 1009.3 |
| 20260901174521 | 70 | 161 | 0.0 | 2.6 | 0.00 | 0.00 | 0.00 | 40 | 1009.7 |
| 20260901173018 | 68 | 161 | 0.9 | 3.5 | 0.00 | 0.00 | 0.00 | 42 | 1010.0 |
| 20260901171513 | 66 | 161 | 0.0 | 1.7 | 0.00 | 0.00 | 0.00 | 45 | 1010.4 |
| 20260901170010 | 64 | 161 | 0.0 | 1.7 | 0.00 | 0.00 | 0.00 | 45 | 1010.7 |
| 20260901164508 | 64 | 161 | 0.0 | 1.7 | 0.00 | 0.00 | 0.00 | 46 | 1010.8 |
| 20260901163004 | 62 | 161 | 0.0 | 1.7 | 0.00 | 0.00 | 0.00 | 48 | 1011.0 |
| 20260901161503 | 62 | 161 | 0.0 | 0.9 | 0.00 | 0.00 | 0.00 | 48 | 1011.0 |
| 20260901160059 | 60 | 161 | 0.0 | 0.9 | 0.00 | 0.00 | 0.00 | 52 | 1011.1 |
| 20260901154555 | 58 | 161 | 0.0 | 1.7 | 0.00 | 0.00 | 0.00 | 54 | 1011.2 |
| 20260901153056 | 57 | 161 | 0.0 | 0.0 | 0.00 | 0.00 | 0.00 | 56 | 1011.3 |
| 20260901151549 | 54 | 162 | 0.0 | 0.0 | 0.00 | 0.00 | 0.00 | 60 | 1011.5 |
| 20260901150049 | 54 | 162 | 0.0 | 0.0 | 0.00 | 0.00 | 0.00 | 62 | 1011.6 |
| 20260901144542 | 51 | 161 | 0.0 | 0.9 | 0.00 | 0.00 | 0.00 | 67 | 1011.6 |
| 20260901143042 | 49 | 162 | 0.0 | 0.0 | 0.00 | 0.00 | 0.00 | 70 | 1011.7 |
| 20260901141541 | 47 | 161 | 0.0 | 0.0 | 0.00 | 0.00 | 0.00 | 73 | 1011.7 |
| 20260901140039 | 43 | 161 | 0.0 | 0.0 | 0.00 | 0.00 | 0.00 | 78 | 1011.7 |
| 20260901134539 | 41 | 161 | 0.0 | 0.0 | 0.00 | 0.00 | 0.00 | 80 | 1011.8 |
| 20260901133037 | 39 | 161 | 0.0 | 0.0 | 0.00 | 0.00 | 0.00 | 83 | 1011.6 |
| 20260901131537 | 40 | 161 | 0.0 | 0.0 | 0.00 | 0.00 | 0.00 | 80 | 1011.5 |
| 20260901130036 | 40 | 161 | 0.0 | 0.0 | 0.00 | 0.00 | 0.00 | 82 | 1011.5 |
| 20260901124532 | 40 | 161 | 0.0 | 0.0 | 0.00 | 0.00 | 0.00 | 80 | 1011.4 |
| 20260901123034 | 41 | 161 | 0.0 | 0.0 | 0.00 | 0.00 | 0.00 | 79 | 1011.4 |
| 20260901121527 | 41 | 162 | 0.0 | 0.0 | 0.00 | 0.00 | 0.00 | 79 | 1011.2 |
| 20260901120025 | 42 | 161 | 0.0 | 0.0 | 0.00 | 0.00 | 0.00 | 78 | 1011.1 |
| 20260901114524 | 41 | 161 | 0.0 | 0.0 | 0.00 | 0.00 | 0.00 | 78 | 1011.2 |